Regional Weather Roundup
Issued by NWS

Home | Current Version | Previous Version | Graphics & Text | Print | Product List | Glossary On
Versions: 1 2 3 4 5 6 7 8 9 10 11 12 13 14 15 16 17 18 19 20 21 22 23 24 25 26 27 28 29 30 31 32 33 34 35 36 37 38 39 40 41 42 43 44 45 46 47 48 49 50
000
ASUS43 KDTX 260510
RWRMI
MICHIGAN HOURLY REGIONAL WEATHER ROUNDUP
NATIONAL WEATHER SERVICE DETROIT/PONTIAC MI
100 AM EDT FRI MAY 26 2017

NOTE: "FAIR" INDICATES FEW OR NO CLOUDS BELOW 12,000 FEET WITH NO
SIGNIFICANT WEATHER AND/OR OBSTRUCTION TO VISIBILITY.

MIZ047>049-052>055-059>063-066>070-074>076-081>083-260600-
SOUTHEAST LOWER MICHIGAN

CITY           SKY/WX    TMP DP  RH WIND       PRES   REMARKS
ADRIAN         CLOUDY    59  55  87 NW5       29.68R
ALMA           CLOUDY    56  53  91 NW9       29.70R
ANN ARBOR      CLOUDY    58  56  93 NW9       29.66R
BAD AXE        CLOUDY    49  49 100 NW6       29.65S FOG
CARO           CLOUDY    53  52  97 N8        29.66R FOG
DETROIT CITY   CLOUDY    57  55  93 NW6       29.63R
DETROIT        CLOUDY    58  55  90 NW8       29.65R
FLINT          CLOUDY    54  53  97 N9        29.66R
GROSSE ILE     CLOUDY    58  55  90 NW7       29.63S
HILLSDALE      MOCLDY    55  54  94 W7        29.69S
HOWELL         CLOUDY    55  52  90 NW5       29.67S

CITY           SKY/WX    TMP DP  RH WIND       PRES   REMARKS
JACKSON        CLOUDY    58  55  90 NW5       29.68R
LAMBERTVILLE   CLOUDY    59  56  88 W5        29.67R
LANSING        CLOUDY    57  52  83 N8        29.69R
LAPEER         CLOUDY    53  53  98 NW8       29.66R FOG
MASON          CLOUDY    56  55  95 N3        29.69R
MONROE         CLOUDY    59  56  90 NW7       29.65R
MT. CLEMENS    CLOUDY    55  55 100 NW7       29.62R
PONTIAC        CLOUDY    55  52  89 NW13      29.64R
PORT HOPE        N/A     49  48  97 N5        29.63R
PORT HURON     CLOUDY    54  52  94 NW3       29.63R
TRI CITIES     CLOUDY    54  53  97 N10       29.69R
MIDLAND        CLOUDY    55  51  89 N3        29.68S
TROY           CLOUDY    56  54  90 NW8       29.65S
SAGINAW HB     CLOUDY    54  50  87 NW8       29.67S
$$
MIZ043>046-050>051-056>058-064>065-071>073-077>080-260600-
SOUTHWEST LOWER MICHIGAN

CITY           SKY/WX    TMP DP  RH WIND       PRES   REMARKS
BATTLE CREEK   CLOUDY    56  54  93 W7        29.71R
BENTON HARBOR  PTCLDY    50  48  93 W5        29.75R
BIG RAPIDS     MOCLDY    55  51  85 CALM      29.71S
COLDWATER      CLOUDY    56  55  94 W5        29.71R
FREMONT        FAIR      51  50  95 NW6       29.72R
HOLLAND        CLEAR     51  49  92 NW5       29.73R
GRAND RAPIDS   PTCLDY    59  54  83 N9        29.70R
IONIA          MOCLDY    58  52  81 NW8       29.69S
KALAMAZOO      CLEAR     53  49  86 W5        29.72R
LUDINGTON      CLEAR     50  50 100 N3        29.73S
MARSHALL       CLOUDY    58  58  99 W3        29.70R
MOUNT PLEASANT MOCLDY    55  51  83 N7        29.70R
MUSKEGON       CLEAR     55  52  89 W7        29.73R
SOUTH HAVEN    CLEAR     51  50  97 W5        29.74R
$$
MIZ016>042-260600-
NORTHERN LOWER MICHIGAN

CITY           SKY/WX    TMP DP  RH WIND       PRES   REMARKS
ALPENA         CLOUDY    54  54 100 N7        29.70R
BEAVER ISLAND  CLOUDY    54  53  97 N5        29.78R
BELLAIRE       CLOUDY    55  51  86 CALM      29.74S
CADILLAC       CLOUDY    53  52  96 NW3       29.72S
CHARLEVOIX     CLOUDY    50  50 100 NW6       29.78S FOG
FRANKFORT      CLEAR     52  49  89 NE5       29.74S
GAYLORD        CLOUDY    54  51  90 VRB3      29.73R
GRAYLING       CLOUDY    55  52  90 NW7       29.73R
HARBOR SPRINGS CLOUDY    55  54  97 N5        29.74S
HOUGHTON LAKE  CLOUDY    53  50  89 NW8       29.72R
MANISTEE       CLEAR     51  50  96 NW3       29.74R
OSCODA         CLOUDY    54  53  96 N7        29.66S
PELLSTON       CLOUDY    55  52  89 N6        29.75R
ROGERS CITY    CLOUDY    48  48  98 N6        29.72S
TRAVERSE CITY  MOCLDY    51  48  89 W5        29.73S
$$
MIZ007>008-015-260600-
EASTERN UPPER MICHIGAN

CITY           SKY/WX    TMP DP  RH WIND       PRES   REMARKS
KINROSS        CLOUDY    53  52  96 NW8       29.76S
MACKINAC ISLAN CLOUDY    53  53 100 N5        29.75R
NEWBERRY       CLOUDY    53  52  97 NW5       29.77S
S. S. MARIE    CLOUDY    58  53  84 N5        29.75S
MUNISING         N/A     45  43  93 S5        29.79R
$$
MIZ004>006-011>014-085-260600-
CENTRAL UPPER MICHIGAN

CITY           SKY/WX    TMP DP  RH WIND       PRES   REMARKS
MANISTIQUE     CLOUDY    55  52  90 CALM      29.78S
ESCANABA       CLEAR     49  48  97 NW3       29.79R
SAWYER-GWINN   CLEAR     45  43  93 NW3       29.80S
$$
MIZ001>003-009>011-084-260600-
WESTERN UPPER MICHIGAN

CITY           SKY/WX    TMP DP  RH WIND       PRES   REMARKS
IRON MOUNTAIN  CLEAR     47  43  86 CALM      29.78S
HOUGHTON       CLEAR     49  44  83 E8        29.78R
COPPER HARBOR    N/A     51  46  83 CALM      29.77S
IRONWOOD       PTCLDY    60  47  61 SE12      29.74S
$$

ABBREVIATIONS USED IN REMARKS
   TC - TEMPERATURE IN CELSIUS
  WCI - WIND CHILL INDEX
   HX - HEAT INDEX
  VSB - VISIBILITY




USA.gov is the U.S. government's official web portal to all federal, state and local government web resources and services.